FIN6MB EFRO-EFHK

Flight info

Callsign FIN6MB
Flight time 1h 1m
Altitude 37000
Route RENVI Y86 LUSEP
Aircraft A320/M-SDE3FGHIRWY/LB1

Departure

Time 2026-04-25 16:14
Airport Rovaniemi Airport (EFRO)

Arrival

Time 2026-04-25 17:15
Airport Helsinki Vantaa Airport (EFHK)
Time Latitude Longitude Altitude Speed Heading
2026-04-25 15:53 66.55827 25.82623 627 ft 0 kts 137°
2026-04-25 16:04 66.55832 25.82612 627 ft 4 kts 137°
2026-04-25 16:05 66.55845 25.82582 626 ft 4 kts 137°
2026-04-25 16:05 66.55869 25.82529 624 ft 4 kts 143°
2026-04-25 16:05 66.55917 25.82512 624 ft 4 kts 212°
2026-04-25 16:06 66.55935 25.82547 623 ft 1 kts 218°
2026-04-25 16:06 66.55935 25.82548 623 ft 0 kts 218°
2026-04-25 16:09 66.55926 25.82530 627 ft 9 kts 218°
2026-04-25 16:09 66.55834 25.82353 623 ft 18 kts 218°
2026-04-25 16:09 66.55726 25.82135 616 ft 21 kts 217°
2026-04-25 16:09 66.55612 25.81926 614 ft 19 kts 215°
2026-04-25 16:10 66.55522 25.81753 624 ft 13 kts 218°
2026-04-25 16:10 66.55459 25.81632 626 ft 12 kts 217°
2026-04-25 16:10 66.55389 25.81508 631 ft 10 kts 214°
2026-04-25 16:10 66.55348 25.81417 632 ft 7 kts 236°
2026-04-25 16:11 66.55339 25.81350 631 ft 0 kts 260°
2026-04-25 16:11 66.55336 25.81302 630 ft 8 kts 267°
2026-04-25 16:11 66.55368 25.81157 628 ft 11 kts 319°
2026-04-25 16:12 66.55432 25.81064 626 ft 10 kts 353°
2026-04-25 16:12 66.55461 25.81096 626 ft 0 kts 34°
2026-04-25 16:12 66.55462 25.81098 626 ft 0 kts 34°
2026-04-25 16:12 66.55463 25.81099 626 ft 1 kts 35°
2026-04-25 16:13 66.55465 25.81104 626 ft 0 kts 37°
2026-04-25 16:13 66.55526 25.81221 621 ft 40 kts 37°
2026-04-25 16:14 66.55947 25.82022 626 ft 107 kts 37°
2026-04-25 16:14 66.56675 25.83392 669 ft 150 kts 37°
2026-04-25 16:14 66.57471 25.84955 1448 ft 142 kts 34°
2026-04-25 16:14 66.58266 25.86492 2098 ft 150 kts 33°
2026-04-25 16:15 66.59160 25.88172 2459 ft 172 kts 33°
2026-04-25 16:15 66.60176 25.90076 2841 ft 190 kts 34°
2026-04-25 16:15 66.61201 25.92246 3555 ft 198 kts 50°
2026-04-25 16:15 66.61582 25.95607 4332 ft 214 kts 92°
2026-04-25 16:16 66.61027 25.99350 4791 ft 243 kts 118°
2026-04-25 16:16 66.60010 26.02866 5602 ft 253 kts 127°
2026-04-25 16:16 66.58711 26.05902 6467 ft 261 kts 149°
2026-04-25 16:16 66.57001 26.07481 7375 ft 266 kts 170°
2026-04-25 16:17 66.55110 26.07596 7983 ft 282 kts 192°
2026-04-25 16:17 66.53271 26.05952 8747 ft 288 kts 208°
2026-04-25 16:17 66.51446 26.03796 9653 ft 292 kts 207°
2026-04-25 16:17 66.49520 26.01521 10077 ft 314 kts 207°
2026-04-25 16:18 66.47505 25.99142 10528 ft 331 kts 207°
2026-04-25 16:18 66.46800 25.98311 10782 ft 333 kts 207°
2026-04-25 16:18 66.43965 25.94988 11870 ft 339 kts 207°
2026-04-25 16:18 66.41108 25.91664 12972 ft 345 kts 207°
2026-04-25 16:19 66.38921 25.89123 13729 ft 348 kts 207°
2026-04-25 16:19 66.36716 25.86559 14483 ft 351 kts 208°
2026-04-25 16:19 66.34491 25.83976 15223 ft 354 kts 208°
2026-04-25 16:20 66.29990 25.78774 16682 ft 360 kts 208°
2026-04-25 16:20 66.27720 25.76150 17400 ft 363 kts 208°
2026-04-25 16:20 66.23857 25.71686 18476 ft 368 kts 208°
2026-04-25 16:21 66.21522 25.68993 19076 ft 372 kts 209°
2026-04-25 16:21 66.19163 25.66284 19660 ft 375 kts 209°
2026-04-25 16:21 66.16782 25.63565 20248 ft 379 kts 209°
2026-04-25 16:21 66.14374 25.60830 20833 ft 383 kts 209°
2026-04-25 16:22 66.11942 25.58070 21423 ft 386 kts 209°
2026-04-25 16:22 66.09470 25.55395 21988 ft 393 kts 205°
2026-04-25 16:22 66.06805 25.53587 22550 ft 402 kts 194°
2026-04-25 16:22 66.03992 25.52920 23107 ft 411 kts 185°
2026-04-25 16:23 66.01159 25.52757 23558 ft 414 kts 185°
2026-04-25 16:23 65.98230 25.52582 23971 ft 418 kts 186°
2026-04-25 16:23 65.95310 25.52409 24386 ft 422 kts 186°
2026-04-25 16:23 65.92363 25.52233 24790 ft 425 kts 186°
2026-04-25 16:24 65.89393 25.52058 25215 ft 428 kts 186°
2026-04-25 16:24 65.86401 25.51878 25609 ft 432 kts 186°
2026-04-25 16:24 65.83393 25.51690 26003 ft 435 kts 186°
2026-04-25 16:24 65.80357 25.51504 26388 ft 438 kts 186°
2026-04-25 16:25 65.78333 25.51383 26649 ft 440 kts 186°
2026-04-25 16:25 65.75270 25.51198 27017 ft 443 kts 186°
2026-04-25 16:25 65.71131 25.50954 27513 ft 447 kts 186°
2026-04-25 16:25 65.68011 25.50771 27889 ft 450 kts 186°
2026-04-25 16:26 65.64879 25.50590 28261 ft 452 kts 186°
2026-04-25 16:26 65.61721 25.50409 28598 ft 455 kts 187°
2026-04-25 16:26 65.58651 25.50231 28930 ft 458 kts 187°
2026-04-25 16:26 65.55454 25.50043 29270 ft 461 kts 187°
2026-04-25 16:27 65.52239 25.49853 29605 ft 463 kts 187°
2026-04-25 16:27 65.49013 25.49659 29859 ft 466 kts 187°
2026-04-25 16:27 65.45805 25.49466 30103 ft 469 kts 187°
2026-04-25 16:27 65.42491 25.49268 30352 ft 471 kts 186°
2026-04-25 16:28 65.39205 25.49077 30598 ft 473 kts 186°
2026-04-25 16:28 65.35953 25.48891 30816 ft 476 kts 186°
2026-04-25 16:28 65.32592 25.48704 31044 ft 478 kts 186°
2026-04-25 16:28 65.29258 25.48518 31314 ft 479 kts 186°
2026-04-25 16:29 65.25970 25.48331 31642 ft 479 kts 186°
2026-04-25 16:29 65.22602 25.48134 31958 ft 479 kts 186°
2026-04-25 16:29 65.19310 25.47938 32256 ft 479 kts 186°
2026-04-25 16:29 65.15930 25.47736 32569 ft 479 kts 186°
2026-04-25 16:30 65.12601 25.47538 32886 ft 479 kts 185°
2026-04-25 16:30 65.09306 25.47348 33174 ft 480 kts 185°
2026-04-25 16:30 65.05919 25.47160 33487 ft 480 kts 185°
2026-04-25 16:30 65.02574 25.46980 33758 ft 481 kts 185°
2026-04-25 16:31 64.99281 25.46808 34030 ft 480 kts 185°
2026-04-25 16:31 64.95940 25.46628 34296 ft 480 kts 185°
2026-04-25 16:31 64.92604 25.46441 34564 ft 479 kts 185°
2026-04-25 16:31 64.89269 25.46250 34838 ft 479 kts 185°
2026-04-25 16:32 64.85896 25.46053 35113 ft 478 kts 185°
2026-04-25 16:32 64.82577 25.45859 35344 ft 478 kts 185°
2026-04-25 16:32 64.79253 25.45668 35590 ft 477 kts 185°
2026-04-25 16:32 64.75978 25.45483 35827 ft 477 kts 185°
2026-04-25 16:33 64.72617 25.45294 36061 ft 476 kts 185°
2026-04-25 16:33 64.69312 25.45107 36266 ft 476 kts 185°
2026-04-25 16:33 64.66046 25.44919 36468 ft 476 kts 185°
2026-04-25 16:34 64.59404 25.44541 36555 ft 473 kts 185°
2026-04-25 16:34 64.52870 25.44181 36549 ft 472 kts 185°
2026-04-25 16:35 64.46305 25.43821 36545 ft 472 kts 185°
2026-04-25 16:35 64.39736 25.43480 36541 ft 472 kts 185°
2026-04-25 16:36 64.33170 25.43129 36541 ft 472 kts 185°
2026-04-25 16:36 64.26595 25.42749 36527 ft 472 kts 185°
2026-04-25 16:37 64.20023 25.42389 36527 ft 473 kts 185°
2026-04-25 16:37 64.13443 25.42035 36517 ft 473 kts 185°
2026-04-25 16:38 64.06857 25.41687 36520 ft 473 kts 185°
2026-04-25 16:38 64.00273 25.41340 36518 ft 473 kts 185°
2026-04-25 16:39 63.93691 25.40996 36516 ft 473 kts 185°
2026-04-25 16:39 63.87109 25.40657 36506 ft 473 kts 185°
2026-04-25 16:40 63.80519 25.40301 36508 ft 473 kts 185°
2026-04-25 16:40 63.73932 25.39954 36497 ft 473 kts 185°
2026-04-25 16:41 63.67348 25.39604 36505 ft 474 kts 185°
2026-04-25 16:41 63.57467 25.39091 36489 ft 473 kts 185°
2026-04-25 16:42 63.50877 25.38759 36482 ft 473 kts 185°
2026-04-25 16:42 63.44284 25.38427 36483 ft 474 kts 185°
2026-04-25 16:43 63.37707 25.38095 36477 ft 474 kts 185°
2026-04-25 16:43 63.31105 25.37753 36488 ft 474 kts 185°
2026-04-25 16:44 63.24519 25.37401 36468 ft 474 kts 185°
2026-04-25 16:44 63.17926 25.37077 36474 ft 473 kts 185°
2026-04-25 16:45 63.11400 25.36758 36461 ft 474 kts 185°
2026-04-25 16:45 63.04747 25.36424 36461 ft 474 kts 185°
2026-04-25 16:46 62.98153 25.36087 36449 ft 474 kts 185°
2026-04-25 16:46 62.93740 25.35856 36454 ft 474 kts 185°
2026-04-25 16:47 62.84958 25.35417 36452 ft 475 kts 185°
2026-04-25 16:47 62.78351 25.35089 36457 ft 475 kts 185°
2026-04-25 16:48 62.71747 25.34756 36449 ft 475 kts 185°
2026-04-25 16:48 62.65147 25.34437 36450 ft 475 kts 185°
2026-04-25 16:49 62.58546 25.34124 36428 ft 475 kts 185°
2026-04-25 16:49 62.51940 25.33791 36425 ft 475 kts 185°
2026-04-25 16:50 62.45336 25.33464 36411 ft 475 kts 185°
2026-04-25 16:50 62.38729 25.33156 36413 ft 475 kts 185°
2026-04-25 16:51 62.32114 25.32830 36407 ft 475 kts 185°
2026-04-25 16:51 62.27735 25.32611 36396 ft 475 kts 185°
2026-04-25 16:52 62.22132 25.32336 34670 ft 490 kts 186°
2026-04-25 16:52 62.18701 25.32172 33807 ft 493 kts 186°
2026-04-25 16:52 62.15300 25.32018 33202 ft 488 kts 186°
2026-04-25 16:52 62.11920 25.31868 32562 ft 483 kts 186°
2026-04-25 16:53 62.05281 25.31573 31369 ft 468 kts 187°
2026-04-25 16:53 62.02078 25.31431 30818 ft 452 kts 187°
2026-04-25 16:53 61.98959 25.31290 30284 ft 447 kts 187°
2026-04-25 16:54 61.95865 25.31137 29733 ft 445 kts 187°
2026-04-25 16:54 61.92778 25.30980 29177 ft 442 kts 187°
2026-04-25 16:54 61.89741 25.30827 28658 ft 438 kts 187°
2026-04-25 16:54 61.86683 25.30681 28140 ft 434 kts 187°
2026-04-25 16:55 61.83675 25.30544 27634 ft 430 kts 187°
2026-04-25 16:55 61.80702 25.30411 27170 ft 426 kts 187°
2026-04-25 16:55 61.77747 25.30278 26706 ft 423 kts 188°
2026-04-25 16:55 61.74815 25.30137 26235 ft 420 kts 188°
2026-04-25 16:56 61.71910 25.30000 25765 ft 417 kts 188°
2026-04-25 16:56 61.69020 25.29865 25326 ft 414 kts 188°
2026-04-25 16:56 61.66148 25.29733 24866 ft 411 kts 188°
2026-04-25 16:56 61.63291 25.29606 24388 ft 410 kts 188°
2026-04-25 16:57 61.60452 25.29483 23899 ft 408 kts 188°
2026-04-25 16:57 61.59527 25.29441 23739 ft 408 kts 188°
2026-04-25 16:57 61.54795 25.29219 22919 ft 405 kts 188°
2026-04-25 16:57 61.52013 25.29081 22365 ft 404 kts 188°
2026-04-25 16:58 61.49172 25.28942 21852 ft 401 kts 188°
2026-04-25 16:58 61.46429 25.28809 21377 ft 399 kts 187°
2026-04-25 16:58 61.43657 25.28675 20881 ft 397 kts 187°
2026-04-25 16:58 61.40896 25.28543 20385 ft 396 kts 187°
2026-04-25 16:59 61.38145 25.28411 19898 ft 395 kts 187°
2026-04-25 16:59 61.35409 25.28282 19423 ft 393 kts 187°
2026-04-25 16:59 61.32674 25.28157 18944 ft 393 kts 187°
2026-04-25 16:59 61.29972 25.28043 18461 ft 382 kts 187°
2026-04-25 17:00 61.27312 25.27935 17997 ft 377 kts 187°
2026-04-25 17:00 61.24686 25.27820 17532 ft 378 kts 187°
2026-04-25 17:00 61.22947 25.27740 17199 ft 377 kts 187°
2026-04-25 17:00 61.19443 25.27573 16592 ft 376 kts 187°
2026-04-25 17:01 61.17711 25.27488 16302 ft 375 kts 187°
2026-04-25 17:01 61.15111 25.27362 15847 ft 374 kts 187°
2026-04-25 17:01 61.12513 25.27241 15400 ft 373 kts 186°
2026-04-25 17:01 61.09919 25.27123 14961 ft 372 kts 186°
2026-04-25 17:02 61.07329 25.27006 14523 ft 372 kts 186°
2026-04-25 17:02 61.04741 25.26891 14094 ft 372 kts 185°
2026-04-25 17:02 61.02157 25.26774 13638 ft 372 kts 185°
2026-04-25 17:02 61.00447 25.26696 13350 ft 372 kts 185°
2026-04-25 17:03 60.96989 25.26541 12721 ft 371 kts 185°
2026-04-25 17:03 60.94419 25.26445 12269 ft 369 kts 184°
2026-04-25 17:03 60.91854 25.26500 11860 ft 365 kts 181°
2026-04-25 17:03 60.89358 25.26674 11726 ft 354 kts 181°
2026-04-25 17:04 60.86937 25.26894 11572 ft 343 kts 180°
2026-04-25 17:04 60.84572 25.27112 11303 ft 337 kts 180°
2026-04-25 17:04 60.82238 25.27304 10976 ft 334 kts 181°
2026-04-25 17:04 60.79932 25.27476 10629 ft 331 kts 181°
2026-04-25 17:05 60.77643 25.27634 10283 ft 327 kts 181°
2026-04-25 17:05 60.73131 25.27916 9625 ft 321 kts 181°
2026-04-25 17:05 60.71011 25.27598 9295 ft 314 kts 196°
2026-04-25 17:06 60.68990 25.26133 8909 ft 304 kts 213°
2026-04-25 17:06 60.67286 25.23708 8541 ft 294 kts 229°
2026-04-25 17:06 60.65942 25.20799 8396 ft 270 kts 233°
2026-04-25 17:06 60.64704 25.18046 8024 ft 259 kts 233°
2026-04-25 17:07 60.63503 25.15363 7385 ft 257 kts 233°
2026-04-25 17:07 60.62282 25.12548 6378 ft 271 kts 233°
2026-04-25 17:07 60.61048 25.09643 5753 ft 275 kts 230°
2026-04-25 17:07 60.59475 25.07446 5345 ft 278 kts 202°
2026-04-25 17:08 60.57593 25.06925 5039 ft 276 kts 176°
2026-04-25 17:08 60.55790 25.07938 4911 ft 264 kts 152°
2026-04-25 17:08 60.54366 25.10129 4787 ft 252 kts 132°
2026-04-25 17:08 60.53136 25.12723 4325 ft 256 kts 132°
2026-04-25 17:09 60.51928 25.15271 4104 ft 249 kts 132°
2026-04-25 17:09 60.50745 25.17756 3980 ft 240 kts 132°
2026-04-25 17:09 60.49591 25.20182 3822 ft 232 kts 132°
2026-04-25 17:09 60.48505 25.22466 3705 ft 224 kts 132°
2026-04-25 17:10 60.47334 25.24413 3598 ft 213 kts 155°
2026-04-25 17:10 60.45939 25.24843 3451 ft 198 kts 192°
2026-04-25 17:10 60.44731 25.23748 3275 ft 182 kts 227°
2026-04-25 17:10 60.43895 25.21957 3061 ft 175 kts 233°
2026-04-25 17:11 60.43088 25.20150 2831 ft 171 kts 233°
2026-04-25 17:11 60.42292 25.18371 2610 ft 170 kts 233°
2026-04-25 17:11 60.41526 25.16668 2369 ft 162 kts 234°
2026-04-25 17:11 60.40799 25.15053 2173 ft 150 kts 234°
2026-04-25 17:12 60.40109 25.13517 1964 ft 146 kts 235°
2026-04-25 17:12 60.39436 25.12019 1764 ft 143 kts 235°
2026-04-25 17:12 60.38789 25.10583 1573 ft 142 kts 235°
2026-04-25 17:12 60.38124 25.09104 1374 ft 142 kts 235°
2026-04-25 17:13 60.37461 25.07634 1178 ft 141 kts 235°
2026-04-25 17:13 60.37014 25.06643 1058 ft 141 kts 235°
2026-04-25 17:13 60.36166 25.04765 837 ft 140 kts 234°
2026-04-25 17:13 60.35514 25.03322 751 ft 139 kts 234°
2026-04-25 17:14 60.34870 25.01899 652 ft 135 kts 236°
2026-04-25 17:14 60.34242 25.00510 523 ft 134 kts 234°
2026-04-25 17:14 60.33642 24.99186 372 ft 134 kts 234°
2026-04-25 17:14 60.33016 24.97803 202 ft 133 kts 234°
2026-04-25 17:15 60.32453 24.96528 175 ft 102 kts 230°
2026-04-25 17:15 60.32075 24.95707 173 ft 58 kts 228°
2026-04-25 17:15 60.31882 24.95351 174 ft 22 kts 214°
2026-04-25 17:15 60.31745 24.95229 173 ft 19 kts 197°
2026-04-25 17:16 60.31657 24.95192 171 ft 10 kts 165°
2026-04-25 17:16 60.31636 24.95304 170 ft 9 kts 71°
2026-04-25 17:16 60.31673 24.95397 170 ft 8 kts 47°
2026-04-25 17:16 60.31680 24.95413 170 ft 0 kts 46°
2026-04-25 17:17 60.31685 24.95424 171 ft 6 kts 46°
2026-04-25 17:17 60.31740 24.95540 171 ft 13 kts 47°
2026-04-25 17:17 60.31801 24.95676 170 ft 13 kts 47°
2026-04-25 17:18 60.31860 24.95804 169 ft 12 kts 47°
2026-04-25 17:18 60.31911 24.95920 170 ft 10 kts 47°
2026-04-25 17:18 60.31916 24.96047 167 ft 11 kts 129°
2026-04-25 17:18 60.31864 24.96152 167 ft 10 kts 122°
2026-04-25 17:19 60.31854 24.96261 167 ft 5 kts 88°
2026-04-25 17:19 60.31845 24.96314 167 ft 5 kts 124°
2026-04-25 17:19 60.31821 24.96355 167 ft 4 kts 140°
2026-04-25 17:19 60.31804 24.96387 167 ft 2 kts 137°
2026-04-25 17:20 60.31801 24.96392 167 ft 0 kts 137°